This is the latest recevied weather packets stored in our database for station/object K4TH. If no packets are shown the sender has not sent any weather packets the latest 1 day(s).
| Time | Temp. | Humidity | Pressure | Rain* | Wind** | Luminosity | Snow |
|---|---|---|---|---|---|---|---|
| 1778044853 | 22.22° C | 78% | 1011.9 hPa | 0 mm | 0.89 m/s, 188° | 0 W/m² | - |
| 1778044549 | 22.22° C | 78% | 1011.9 hPa | 0 mm | 0.45 m/s, 196° | 0 W/m² | - |
| 1778044246 | 22.22° C | 78% | 1012 hPa | 0 mm | 0.89 m/s, 108° | 0 W/m² | - |
| 1778043944 | 22.22° C | 78% | 1011.8 hPa | 0 mm | 0.89 m/s, 169° | 0 W/m² | - |
| 1778043641 | 22.22° C | 78% | 1011.8 hPa | 0 mm | 0.89 m/s, 159° | 0 W/m² | - |
| 1778043337 | 22.22° C | 79% | 1011.7 hPa | 0 mm | 0 m/s | 0 W/m² | - |
| 1778043034 | 22.22° C | 78% | 1011.7 hPa | 0 mm | 0 m/s | 0 W/m² | - |
| 1778042732 | 22.22° C | 79% | 1011.6 hPa | 0 mm | 0.45 m/s, 59° | 0 W/m² | - |
| 1778042429 | 22.22° C | 78% | 1011.5 hPa | 0 mm | 0 m/s | 0 W/m² | - |
| 1778042126 | 22.22° C | 78% | 1011.7 hPa | 0 mm | 0.45 m/s, 56° | 0 W/m² | - |
| 1778041824 | 22.22° C | 78% | 1011.8 hPa | 0 mm | 0.45 m/s, 52° | 0 W/m² | - |
| 1778041523 | 22.78° C | 77% | 1011.7 hPa | 0 mm | 0 m/s | 0 W/m² | - |
| 1778041221 | 22.78° C | 76% | 1011.6 hPa | 0 mm | 0.45 m/s, 46° | 0 W/m² | - |
| 1778040919 | 22.78° C | 76% | 1011.6 hPa | 0 mm | 0 m/s | 0 W/m² | - |
| 1778040616 | 22.78° C | 75% | 1011.5 hPa | 0 mm | 0 m/s | 0 W/m² | - |
| 1778040314 | 22.78° C | 75% | 1011.6 hPa | 0 mm | 0.45 m/s, 60° | 0 W/m² | - |
| 1778040009 | 22.78° C | 74% | 1011.4 hPa | 0 mm | 0.89 m/s, 13° | 0 W/m² | - |
| 1778039706 | 22.78° C | 74% | 1011.5 hPa | 0 mm | 1.34 m/s, 157° | 0 W/m² | - |
| 1778039403 | 22.78° C | 74% | 1011.4 hPa | 0 mm | 1.34 m/s, 94° | 0 W/m² | - |
| 1778039100 | 22.78° C | 74% | 1011.4 hPa | 0 mm | 0.45 m/s, 59° | 0 W/m² | - |
| 1778038797 | 22.78° C | 73% | 1011.7 hPa | 0 mm | 0.45 m/s, 90° | 0 W/m² | - |
| 1778038495 | 22.78° C | 72% | 1011.7 hPa | 0 mm | 0.45 m/s, 49° | 0 W/m² | - |
| 1778038191 | 23.33° C | 72% | 1011.6 hPa | 0 mm | 0.45 m/s, 51° | 0 W/m² | - |
| 1778037889 | 23.33° C | 71% | 1011.7 hPa | 0 mm | 0.45 m/s, 55° | 0 W/m² | - |
| 1778037585 | 23.33° C | 71% | 1011.6 hPa | 0 mm | 1.34 m/s, 166° | 0 W/m² | - |
* Rain latest hour (hover to see other rain measurements)
** Current wind speed in m/s (hover to see current wind gust speed)